Regional Weather Roundup
Issued by NWS

Home | Current Version | Previous Version | Text Only | Print | Product List | Glossary Off
Versions: 1 2 3 4 5 6 7 8 9 10 11 12 13 14 15 16 17 18 19 20 21 22 23 24 25 26 27 28 29 30 31 32 33 34 35 36 37 38 39 40 41 42 43 44 45 46 47 48 49 50

000
ASUS43 KBIS 230710
RWRND

NORTH DAKOTA REGIONAL WEATHER ROUNDUP
NATIONAL WEATHER SERVICE BISMARCK ND
200 AM CDT THU MAR 23 2017

NOTE: "FAIR" INDICATES FEW OR NO CLOUDS BELOW 12,000 FEET WITH NO
SIGNIFICANT WEATHER AND/OR OBSTRUCTIONS TO VISIBILITY.


NDZ001>003-009>011-017-230800-
NORTHWEST NORTH DAKOTA

CITY           SKY/WX    TMP DP  RH WIND       PRES   REMARKS
WILLISTON      FAIR      30  28  92 CALM      29.78S
MINOT          FAIR      34  29  82 S8        29.80S
MINOT AFB      CLOUDY    28  26  91 S8        29.79F
$$

NDZ018>021-031>035-040>046-230800-
SOUTHWEST NORTH DAKOTA

CITY           SKY/WX    TMP DP  RH WIND       PRES   REMARKS
BISMARCK       FAIR      33  27  78 SE6       29.85S
DICKINSON      FAIR      34  29  82 CALM      29.76F
GARRISON         N/A     31  27  85 SE7       29.82S
HETTINGER ARPT PTCLDY    31  28  89 CALM      29.77F
$$

NDZ004>008-012>016-024-026-027-054-230800-
NORTHEAST NORTH DAKOTA

CITY           SKY/WX    TMP DP  RH WIND       PRES   REMARKS
GRAND FORKS    CLOUDY    34  21  59 S17G25    29.98F
GRND FRKS AFB  CLOUDY    33  25  72 S18G25    29.97F
DEVILS LAKE    FAIR      30  25  81 S14       29.90F WCI  19
$$

NDZ022-023-025-028>030-036>039-047>053-230800-
SOUTHEAST NORTH DAKOTA

CITY           SKY/WX    TMP DP  RH WIND       PRES   REMARKS
FARGO          PTCLDY    36  24  62 S25G35    30.00F
JAMESTOWN      FAIR      30  25  81 SE15      29.89F WCI  19
$$




USA.gov is the U.S. government's official web portal to all federal, state and local government web resources and services.